Location: ČR
(50.0000°N, 15.0000°E)
Time: 13:55:25
(UTC+00:00)

A-11 Canister half - Visible Passes

Search period start: 25 October 2021 00:00
Search period end: 04 November 2021 00:00
Orbit: 1525 x 1684 km, 47.3° (Epoch: 24 October)

Date Brightness Start Highest point End Pass type
(mag) Time Alt. Az. Time Alt. Az. Time Alt. Az.
25 Oct 10.3 17:42:10 10° W 17:50:05 33° SW 17:58:05 10° SSE visible
26 Oct 10.3 17:20:28 10° W 17:28:30 34° SW 17:36:36 10° SSE visible
27 Oct 10.3 16:58:46 10° W 17:06:54 36° SW 17:15:05 10° SSE visible
28 Oct 10.3 16:37:04 10° W 16:45:19 37° SW 16:53:35 10° SSE visible
28 Oct 11.3 18:46:21 10° WSW 18:48:03 11° WSW 18:49:44 10° SW visible
29 Oct 10.3 16:15:23 10° W 16:23:43 39° SW 16:32:04 10° SSE visible
29 Oct 11.3 18:23:48 10° WSW 18:26:30 12° WSW 18:29:13 10° SW visible
30 Oct 11.3 18:01:33 10° WSW 18:04:57 12° SW 18:08:23 10° SSW visible
31 Oct 11.3 17:39:27 10° W 17:43:25 13° SW 17:47:24 10° SSW visible
01 Nov 11.3 17:17:25 10° W 17:21:52 14° SW 17:26:19 10° SSW visible
02 Nov 11.4 16:55:28 10° W 17:00:19 16° SW 17:05:12 10° SSW visible
03 Nov 11.4 16:33:32 10° W 16:38:46 17° SW 16:44:00 10° SSW visible
